Time,TemperatureF,DewpointF,PressureIn,WindDirection,WindDirectionDegrees,WindSpeedMPH,WindSpeedGustMPH,Humidity,HourlyPrecipIn,Conditions,Clouds,dailyrainin,SoftwareType,DateUTC
2013-04-02 14:12:00,88.3,72.7,29.59,North,360,6.0,6.0,60,0.00,,,0.04,VWS V14.01,2013-04-02 04:12:00,
2013-04-02 14:15:00,88.3,72.7,29.59,NNE,22,2.9,2.9,60,0.00,,,0.00,VWS V14.01,2013-04-02 04:15:00,
2013-04-02 14:20:00,88.7,73.0,29.59,North,360,8.1,8.1,60,0.00,,,0.00,VWS V14.01,2013-04-02 04:20:00,
2013-04-02 14:25:00,88.7,72.5,29.59,NE,45,2.7,5.6,59,0.00,,,0.00,VWS V14.01,2013-04-02 04:25:00,
2013-04-02 14:30:00,88.5,72.4,29.59,NNE,22,6.3,6.3,59,0.00,,,0.00,VWS V14.01,2013-04-02 04:30:00,
2013-04-02 14:36:00,88.5,72.4,29.59,East,90,0.0,2.0,59,0.00,,,0.00,VWS V14.01,2013-04-02 04:36:00,
2013-04-02 14:41:00,88.5,72.4,29.59,North,360,5.6,5.6,59,0.00,,,0.00,VWS V14.01,2013-04-02 04:41:00,
2013-04-02 14:47:00,88.5,71.9,29.59,East,90,2.2,2.2,58,0.00,,,0.00,VWS V14.01,2013-04-02 04:47:00,
2013-04-02 14:52:00,88.3,71.7,29.59,NE,45,2.5,4.9,58,0.00,,,0.00,VWS V14.01,2013-04-02 04:52:00,
2013-04-02 14:57:00,88.3,72.7,29.59,NE,45,1.6,3.1,60,0.00,,,0.00,VWS V14.01,2013-04-02 04:57:00,
2013-04-02 15:02:00,88.2,72.0,29.59,NNW,338,6.0,6.0,59,0.00,,,0.00,VWS V14.01,2013-04-02 05:02:00,
2013-04-02 15:08:00,88.0,72.4,29.59,NE,45,3.6,3.6,60,0.00,,,0.00,VWS V14.01,2013-04-02 05:08:00,
2013-04-02 15:13:00,88.0,72.4,29.56,NW,315,3.4,3.4,60,0.00,,,0.00,VWS V14.01,2013-04-02 05:13:00,
2013-04-02 15:18:00,88.0,71.9,29.56,NNE,22,5.6,5.6,59,0.00,,,0.00,VWS V14.01,2013-04-02 05:18:00,
2013-04-02 15:23:00,87.6,71.5,29.56,NE,45,3.4,3.4,59,0.00,,,0.00,VWS V14.01,2013-04-02 05:23:00,
2013-04-02 15:28:00,87.6,71.5,29.56,NNW,338,4.3,4.3,59,0.00,,,0.00,VWS V14.01,2013-04-02 05:28:00,
2013-04-02 15:33:00,87.8,71.7,29.56,NE,45,3.8,3.8,59,0.00,,,0.00,VWS V14.01,2013-04-02 05:33:00,
2013-04-02 15:39:00,87.8,71.7,29.56,NNE,22,4.3,4.3,59,0.00,,,0.00,VWS V14.01,2013-04-02 05:39:00,
2013-04-02 15:44:00,87.6,71.5,29.56,NNW,338,2.2,2.2,59,0.00,,,0.00,VWS V14.01,2013-04-02 05:44:00,
2013-04-02 15:49:00,87.6,71.5,29.56,NE,45,2.9,4.9,59,0.00,,,0.00,VWS V14.01,2013-04-02 05:49:00,
2013-04-02 15:54:00,87.6,71.5,29.56,NE,45,4.0,4.0,59,0.00,,,0.00,VWS V14.01,2013-04-02 05:54:00,
2013-04-02 15:59:00,87.6,71.5,29.56,NE,45,2.9,2.9,59,0.00,,,0.00,VWS V14.01,2013-04-02 05:59:00,
2013-04-02 16:04:00,87.6,71.5,29.56,North,360,3.4,3.4,59,0.00,,,0.00,VWS V14.01,2013-04-02 06:04:00,
2013-04-02 16:09:00,87.4,71.9,29.56,NNW,338,2.9,2.9,60,0.00,,,0.00,VWS V14.01,2013-04-02 06:09:00,
2013-04-02 16:14:00,87.6,71.5,29.56,NNE,22,3.8,3.8,59,0.00,,,0.00,VWS V14.01,2013-04-02 06:14:00,
2013-04-02 16:19:00,87.4,71.9,29.56,NE,45,3.4,3.8,60,0.00,,,0.00,VWS V14.01,2013-04-02 06:19:00,
2013-04-02 16:24:00,87.3,71.7,29.56,NNE,22,0.9,0.9,60,0.00,,,0.00,VWS V14.01,2013-04-02 06:24:00,
2013-04-02 16:29:00,87.1,71.5,29.56,NW,315,3.8,3.8,60,0.00,,,0.00,VWS V14.01,2013-04-02 06:29:00,
2013-04-02 16:34:00,86.7,71.2,29.56,ENE,68,4.0,4.0,60,0.00,,,0.00,VWS V14.01,2013-04-02 06:34:00,
2013-04-02 16:39:00,86.7,71.2,29.59,NNE,22,0.0,1.3,60,0.00,,,0.00,VWS V14.01,2013-04-02 06:39:00,
2013-04-02 16:44:00,86.7,71.7,29.59,North,360,1.6,4.0,61,0.00,,,0.00,VWS V14.01,2013-04-02 06:44:00,
2013-04-02 16:50:00,86.7,71.2,29.59,NNE,22,2.5,2.5,60,0.00,,,0.00,VWS V14.01,2013-04-02 06:50:00,
2013-04-02 16:55:00,86.7,71.2,29.59,NNE,22,2.5,2.5,60,0.00,,,0.00,VWS V14.01,2013-04-02 06:55:00,
2013-04-02 17:00:00,86.7,71.2,29.59,NNE,22,2.5,2.5,60,0.00,,,0.00,VWS V14.01,2013-04-02 07:00:00,
2013-04-02 17:05:00,86.7,71.2,29.59,North,360,1.6,1.6,60,0.00,,,0.00,VWS V14.01,2013-04-02 07:05:00,
2013-04-02 17:10:00,86.7,71.2,29.59,ESE,112,0.0,1.6,60,0.00,,,0.00,VWS V14.01,2013-04-02 07:10:00,
2013-04-02 17:15:00,86.4,70.8,29.59,NNE,22,0.0,0.0,60,0.00,,,0.00,VWS V14.01,2013-04-02 07:15:00,
2013-04-02 17:20:00,86.0,70.5,29.59,NNE,22,0.0,1.6,60,0.00,,,0.00,VWS V14.01,2013-04-02 07:20:00,
2013-04-02 17:25:00,85.8,70.8,29.59,North,360,2.5,2.5,61,0.00,,,0.00,VWS V14.01,2013-04-02 07:25:00,
2013-04-02 17:31:00,85.5,70.5,29.59,NE,45,0.9,0.9,61,0.00,,,0.00,VWS V14.01,2013-04-02 07:31:00,
2013-04-02 17:36:00,85.3,70.3,29.59,North,360,3.4,3.4,61,0.00,,,0.00,VWS V14.01,2013-04-02 07:36:00,
2013-04-02 17:41:00,84.9,70.0,29.59,SE,135,0.9,0.9,61,0.00,,,0.00,VWS V14.01,2013-04-02 07:41:00,
2013-04-02 17:46:00,85.1,70.2,29.59,NNE,22,0.0,0.0,61,0.00,,,0.00,VWS V14.01,2013-04-02 07:46:00,
2013-04-02 17:51:00,85.1,70.2,29.59,SE,135,0.0,0.0,61,0.00,,,0.00,VWS V14.01,2013-04-02 07:51:00,
2013-04-02 17:57:00,84.4,70.4,29.59,SSE,158,3.4,3.4,63,0.00,,,0.00,VWS V14.01,2013-04-02 07:57:00,
2013-04-02 18:02:00,83.8,70.4,29.59,SSE,158,1.3,1.3,64,0.00,,,0.00,VWS V14.01,2013-04-02 08:02:00,
2013-04-02 18:08:00,83.8,70.8,29.62,SSE,158,1.3,1.3,65,0.00,,,0.00,VWS V14.01,2013-04-02 08:08:00,
2013-04-02 18:13:00,83.7,70.7,29.62,South,180,0.0,2.9,65,0.00,,,0.00,VWS V14.01,2013-04-02 08:13:00,
2013-04-02 18:18:00,83.5,70.5,29.62,SSW,202,2.0,2.0,65,0.00,,,0.00,VWS V14.01,2013-04-02 08:18:00,
2013-04-02 18:23:00,83.5,70.5,29.62,SE,135,1.1,1.1,65,0.00,,,0.00,VWS V14.01,2013-04-02 08:23:00,
2013-04-02 18:28:00,83.3,70.3,29.62,SE,135,2.0,2.0,65,0.00,,,0.00,VWS V14.01,2013-04-02 08:28:00,
2013-04-02 18:33:00,83.3,70.3,29.62,SSE,158,0.0,0.0,65,0.00,,,0.00,VWS V14.01,2013-04-02 08:33:00,
2013-04-02 18:39:00,82.9,70.0,29.62,SSW,202,0.0,0.0,65,0.00,,,0.00,VWS V14.01,2013-04-02 08:39:00,
2013-04-02 18:44:00,82.6,69.6,29.62,SSE,158,6.0,8.7,65,0.00,,,0.00,VWS V14.01,2013-04-02 08:44:00,
2013-04-02 18:49:00,82.6,69.6,29.62,SSE,158,1.6,1.6,65,0.00,,,0.00,VWS V14.01,2013-04-02 08:49:00,
2013-04-02 18:54:00,82.6,70.1,29.62,SSE,158,0.0,0.0,66,0.00,,,0.00,VWS V14.01,2013-04-02 08:54:00,
2013-04-02 18:59:00,82.4,69.9,29.62,SE,135,0.0,0.0,66,0.00,,,0.00,VWS V14.01,2013-04-02 08:59:00,
2013-04-02 19:04:00,82.6,70.1,29.62,ESE,112,4.0,4.0,66,0.00,,,0.00,VWS V14.01,2013-04-02 09:04:00,
2013-04-02 19:09:00,82.4,69.9,29.62,SE,135,2.7,2.7,66,0.00,,,0.00,VWS V14.01,2013-04-02 09:09:00,
2013-04-02 19:14:00,82.2,69.7,29.62,SE,135,0.0,0.0,66,0.00,,,0.00,VWS V14.01,2013-04-02 09:14:00,
2013-04-02 19:20:00,82.2,69.7,29.62,SE,135,0.0,2.5,66,0.00,,,0.00,VWS V14.01,2013-04-02 09:20:00,
2013-04-02 19:25:00,82.0,70.0,29.62,SE,135,0.0,3.4,67,0.00,,,0.00,VWS V14.01,2013-04-02 09:25:00,
2013-04-02 19:30:00,82.2,70.2,29.62,SE,135,0.0,4.9,67,0.00,,,0.00,VWS V14.01,2013-04-02 09:30:00,
2013-04-02 19:35:00,82.0,70.0,29.62,South,180,2.2,2.5,67,0.00,,,0.00,VWS V14.01,2013-04-02 09:35:00,
2013-04-02 19:40:00,81.9,69.8,29.65,SSW,202,2.0,2.0,67,0.00,,,0.00,VWS V14.01,2013-04-02 09:40:00,
2013-04-02 19:45:00,81.7,69.7,29.65,SE,135,0.0,0.0,67,0.00,,,0.00,VWS V14.01,2013-04-02 09:45:00,
2013-04-02 19:50:00,81.3,69.3,29.65,SSW,202,3.1,3.1,67,0.00,,,0.00,VWS V14.01,2013-04-02 09:50:00,
2013-04-02 19:55:00,81.0,69.4,29.65,SE,135,0.0,1.6,68,0.00,,,0.00,VWS V14.01,2013-04-02 09:55:00,
2013-04-02 20:00:00,81.0,69.4,29.65,SSW,202,2.2,2.2,68,0.00,,,0.00,VWS V14.01,2013-04-02 10:00:00,
2013-04-02 20:05:00,80.4,69.3,29.65,SSE,158,2.0,2.0,69,0.00,,,0.00,VWS V14.01,2013-04-02 10:05:00,
2013-04-02 20:11:00,80.4,69.3,29.65,East,90,0.0,0.0,69,0.00,,,0.00,VWS V14.01,2013-04-02 10:11:00,
2013-04-02 20:16:00,80.2,69.6,29.65,SSW,202,3.6,3.6,70,0.00,,,0.00,VWS V14.01,2013-04-02 10:16:00,
2013-04-02 20:21:00,79.7,69.1,29.65,SSE,158,2.2,2.7,70,0.00,,,0.00,VWS V14.01,2013-04-02 10:21:00,
2013-04-02 20:26:00,79.7,69.5,29.65,SW,225,0.0,3.6,71,0.00,,,0.00,VWS V14.01,2013-04-02 10:26:00,
2013-04-02 20:32:00,79.7,69.9,29.65,SSE,158,3.1,3.1,72,0.00,,,0.00,VWS V14.01,2013-04-02 10:32:00,
2013-04-02 20:37:00,79.2,69.4,29.65,SSE,158,2.5,3.1,72,0.00,,,0.00,VWS V14.01,2013-04-02 10:37:00,
2013-04-02 20:43:00,79.5,69.7,29.65,SSE,158,3.1,3.1,72,0.00,,,0.00,VWS V14.01,2013-04-02 10:43:00,
2013-04-02 20:48:00,79.0,69.2,29.65,SE,135,3.6,3.6,72,0.00,,,0.00,VWS V14.01,2013-04-02 10:48:00,
2013-04-02 20:53:00,79.0,69.6,29.68,SSW,202,1.1,2.7,73,0.00,,,0.00,VWS V14.01,2013-04-02 10:53:00,
2013-04-02 20:58:00,78.8,69.4,29.68,South,180,3.1,3.1,73,0.00,,,0.00,VWS V14.01,2013-04-02 10:58:00,
2013-04-02 21:03:00,78.6,69.7,29.68,SSE,158,2.0,2.0,74,0.00,,,0.00,VWS V14.01,2013-04-02 11:03:00,
2013-04-02 21:09:00,79.0,70.0,29.68,SSE,158,1.6,1.6,74,0.00,,,0.00,VWS V14.01,2013-04-02 11:09:00,
2013-04-02 21:14:00,79.0,70.0,29.68,SSE,158,1.1,1.1,74,0.00,,,0.00,VWS V14.01,2013-04-02 11:14:00,
2013-04-02 21:19:00,79.0,70.0,29.68,SW,225,2.7,2.7,74,0.00,,,0.00,VWS V14.01,2013-04-02 11:19:00,
2013-04-02 21:24:00,78.8,69.8,29.68,South,180,2.0,2.0,74,0.00,,,0.00,VWS V14.01,2013-04-02 11:24:00,
2013-04-02 21:29:00,78.4,69.9,29.68,SSE,158,0.0,0.0,75,0.00,,,0.00,VWS V14.01,2013-04-02 11:29:00,
2013-04-02 21:35:00,78.3,69.7,29.68,SSW,202,2.2,2.2,75,0.00,,,0.00,VWS V14.01,2013-04-02 11:35:00,
2013-04-02 21:40:00,78.1,69.5,29.68,South,180,0.0,0.0,75,0.00,,,0.00,VWS V14.01,2013-04-02 11:40:00,
2013-04-02 21:45:00,77.9,69.7,29.68,SSE,158,0.9,2.0,76,0.00,,,0.00,VWS V14.01,2013-04-02 11:45:00,
2013-04-02 21:50:00,77.9,69.7,29.68,SSW,202,0.9,2.2,76,0.00,,,0.00,VWS V14.01,2013-04-02 11:50:00,
2013-04-02 21:55:00,77.5,69.4,29.68,SSE,158,2.7,2.7,76,0.00,,,0.00,VWS V14.01,2013-04-02 11:55:00,
2013-04-02 22:00:00,77.7,69.6,29.68,SSE,158,0.0,3.4,76,0.00,,,0.00,VWS V14.01,2013-04-02 12:00:00,
2013-04-02 22:05:00,77.4,69.6,29.68,South,180,4.3,4.3,77,0.00,,,0.00,VWS V14.01,2013-04-02 12:05:00,
2013-04-02 22:10:00,77.5,69.8,29.68,South,180,2.0,2.0,77,0.00,,,0.00,VWS V14.01,2013-04-02 12:10:00,
2013-04-02 22:15:00,77.4,69.6,29.68,SSE,158,2.5,3.8,77,0.00,,,0.00,VWS V14.01,2013-04-02 12:15:00,
2013-04-02 22:21:00,77.4,69.6,29.68,SE,135,2.5,2.5,77,0.00,,,0.00,VWS V14.01,2013-04-02 12:21:00,
2013-04-02 22:26:00,77.4,69.6,29.68,SW,225,2.9,2.9,77,0.00,,,0.00,VWS V14.01,2013-04-02 12:26:00,
2013-04-02 22:31:00,77.4,69.6,29.68,South,180,1.3,1.3,77,0.00,,,0.00,VWS V14.01,2013-04-02 12:31:00,
2013-04-02 22:36:00,77.4,70.0,29.68,SSE,158,2.0,2.2,78,0.00,,,0.00,VWS V14.01,2013-04-02 12:36:00,
2013-04-02 22:41:00,77.0,69.6,29.68,South,180,2.9,2.9,78,0.00,,,0.00,VWS V14.01,2013-04-02 12:41:00,
2013-04-02 22:46:00,77.0,69.6,29.68,SSW,202,1.1,3.4,78,0.00,,,0.00,VWS V14.01,2013-04-02 12:46:00,
2013-04-02 22:51:00,76.8,69.8,29.68,SSE,158,2.7,2.7,79,0.00,,,0.00,VWS V14.01,2013-04-02 12:51:00,
2013-04-02 22:56:00,76.8,69.8,29.68,SW,225,2.5,2.5,79,0.00,,,0.00,VWS V14.01,2013-04-02 12:56:00,
2013-04-02 23:01:00,77.0,69.6,29.68,South,180,2.9,2.9,78,0.00,,,0.00,VWS V14.01,2013-04-02 13:01:00,
2013-04-02 23:06:00,77.0,69.6,29.65,SSE,158,2.0,2.0,78,0.00,,,0.00,VWS V14.01,2013-04-02 13:06:00,
2013-04-02 23:12:00,76.8,69.8,29.65,SSE,158,1.3,2.7,79,0.00,,,0.00,VWS V14.01,2013-04-02 13:12:00,
2013-04-02 23:17:00,76.6,69.6,29.65,South,180,1.6,2.5,79,0.00,,,0.00,VWS V14.01,2013-04-02 13:17:00,
2013-04-02 23:22:00,76.5,69.5,29.65,South,180,3.8,3.8,79,0.00,,,0.00,VWS V14.01,2013-04-02 13:22:00,
2013-04-02 23:27:00,76.5,69.5,29.65,SSE,158,3.4,3.4,79,0.00,,,0.00,VWS V14.01,2013-04-02 13:27:00,
2013-04-02 23:32:00,76.5,69.8,29.65,SSE,158,2.5,2.9,80,0.00,,,0.00,VWS V14.01,2013-04-02 13:32:00,
2013-04-02 23:37:00,76.3,69.7,29.65,SSE,158,1.3,2.0,80,0.00,,,0.00,VWS V14.01,2013-04-02 13:37:00,
2013-04-02 23:42:00,76.3,69.7,29.65,South,180,2.9,2.9,80,0.00,,,0.00,VWS V14.01,2013-04-02 13:42:00,
2013-04-02 23:48:00,76.5,69.8,29.65,SE,135,1.6,1.6,80,0.00,,,0.00,VWS V14.01,2013-04-02 13:48:00,
2013-04-02 23:53:00,76.5,69.8,29.65,South,180,0.0,2.9,80,0.00,,,0.00,VWS V14.01,2013-04-02 13:53:00,
2013-04-02 23:58:00,76.5,69.8,29.65,SSE,158,2.5,2.5,80,0.00,,,0.00,VWS V14.01,2013-04-02 13:58:00,